Hourly Data Report for June 21, 2021

WESTERN HEAD
NOVA SCOTIA
Current Station Operator: ECCC - MSC

43°59'24.070" N
64°39'51.008" W
10.10 m
8206240
71411
WWE

Download Data

Hourly Data (June 2021)
Hourly Data Report for June 21, 2021
TIME
LST
Temp Definition
°C
Dew Point Definition
°C
Rel Hum Definition
%
Precip. Amount Definition
mm

Wind Dir Definition
10's deg

Wind Spd Definition
km/h
Visibility Definition
km
Stn Press Definition
kPa
Hmdx Definition


Wind Chill Definition


Weather Definition


00:00 11.5 10.7 95 0.0 23 6   100.81     LegendNANA
01:00 10.4 9.4 93 0.0 23 7   100.80     LegendNANA
02:00 10.3 9.9 97 0.0 22 8   100.80     LegendNANA
03:00 8.7 8.7 100 0.0 21 8   100.80     LegendNANA
04:00 8.4 8.4 100 0.0 22 9   100.84     LegendNANA
05:00 9.9 9.9 100 0.0 23 12   100.91     LegendNANA
06:00 10.6 LegendMM LegendMM 0.0 22 10   100.92     LegendNANA
07:00 11.7 LegendMM LegendMM 0.0 22 11   100.94     LegendNANA
08:00 12.0 11.6 98 0.0 20 15   100.96     LegendNANA
09:00 13.8 11.9 88 0.0 21 15   101.01     LegendNANA
10:00 14.2 11.6 84 0.0 21 13   101.05     LegendNANA
11:00 14.8 11.6 81 0.0 19 15   101.05     LegendNANA
12:00 14.5 12.5 88 0.0 20 21   101.05     LegendNANA
13:00 14.3 13.5 95 0.0 19 18   101.02     LegendNANA
14:00 14.0 12.5 91 0.0 19 23   100.96     LegendNANA
15:00 13.8 12.8 93 0.0 19 22   100.94     LegendNANA
16:00 13.1 12.6 97 0.0 19 25   100.87     LegendNANA
17:00 11.8 11.7 100 0.0 17 25   100.84     LegendNANA
18:00 10.8 10.8 100 0.0 21 16   100.84     LegendNANA
19:00 12.1 LegendMM LegendMM 0.0 22 15   100.79     LegendNANA
20:00 13.4 LegendMM LegendMM 0.0 23 13   100.83     LegendNANA
21:00 12.8 LegendMM LegendMM 0.0 18 11   100.85     LegendNANA
22:00 12.1 LegendMM LegendMM 0.0 17 9   100.83     LegendNANA
23:00 11.5 LegendMM LegendMM 0.0 18 13   100.82     LegendNANA

Notes on Data Quality.

Legend

  • E = Estimated
  • M = Missing
  • NA = Not Available*
  • [empty] = Indicates an unobserved value
Date modified: